[[{"header":{"parameterUnit":"m.s-1","parameterCategory":1,"la1":30.2991,"la2":30.254,"lo1":-89.0895,"lo2":-89.0444,"dy":0.0017,"dx":0.0017,"nx":28,"ny":28,"refTime":"2025-12-04T09:00:00:Z","depth":0,"parameterNumber":2,"parameterNumberName":"U-component_of_WINDS"},"data":[0,0,0,0,0,0,0,0,0,0,0,0,0,0,0,0,0,0,0,0,0,0,0,0,0,0,0,0,0,0,0,0,0,0,0,0,0,0,0,0,0,0,0,0,0,0,0,0,0,0,0,0,0,0,0,0,0,0,-0.5963,-0.5963,0,-0.5967,-0.5967,-0.5967,-0.5949,-0.5948,-0.5947,-0.5947,-0.5951,-0.5951,-0.5952,0,0,0,0,0,0,0,0,0,0,0,0,0,-0.5941,-0.5942,-0.5963,-0.5964,-0.5964,-0.5967,-0.5967,-0.5967,-0.5949,-0.5948,-0.5947,-0.5947,-0.5951,-0.5951,-0.5952,0,0,0,0,0,0,0,0,0,0,0,0,0,-0.5948,-0.5942,-0.5963,-0.5955,-0.5954,-0.5967,-0.5967,-0.5967,-0.5949,-0.5948,-0.5947,-0.5946,-0.595,-0.5951,-0.5952,-0.5974,0,0,-0.5955,-0.5955,0,0,0,0,0,0,0,0,-0.5948,-0.5949,-0.5956,-0.5955,-0.5955,-0.5956,-0.596,-0.5969,-0.5949,-0.5951,-0.5947,-0.5946,-0.5953,-0.5954,-0.5956,-0.5974,-0.5974,-0.5955,-0.5956,-0.5956,-0.5956,0,0,0,0,0,0,0,-0.5947,-0.5949,-0.5965,-0.5956,-0.5955,-0.5951,-0.5951,-0.5962,-0.5957,-0.5951,-0.5949,-0.595,-0.5953,-0.5956,-0.5956,-0.5974,-0.5955,-0.5956,-0.5956,-0.5957,-0.601,-0.601,0,0,0,0,0,0,-0.5948,-0.5949,-0.5965,-0.5965,-0.5949,-0.5952,-0.5952,-0.5957,-0.5956,-0.5956,-0.5951,-0.5949,-0.5954,-0.5955,-0.5956,-0.5982,-0.5956,-0.5957,-0.5957,-0.6009,-0.601,-0.6011,0,0,0,0,0,0,-0.5948,-0.595,-0.5965,-0.5956,-0.5958,-0.5953,-0.5958,-0.5957,-0.596,-0.5956,-0.5955,-0.5954,-0.5954,-0.5955,-0.597,-0.5982,-0.5957,-0.5958,-0.6008,-0.6009,-0.601,-0.6033,0,0,0,0,0,0,-0.5947,-0.595,-0.5958,-0.5957,-0.5958,-0.5978,-0.5959,-0.5958,-0.5961,-0.5959,-0.596,-0.5959,-0.5953,-0.5968,-0.597,-0.5983,-0.5959,-0.6007,-0.6008,-0.601,-0.6031,-0.6035,-0.6038,0,0,0,0,0,-0.5946,-0.5964,-0.5958,-0.596,-0.5969,-0.5978,-0.5979,-0.5973,-0.5962,-0.5971,-0.5968,-0.5959,-0.598,-0.597,-0.5972,-0.5985,-0.6006,-0.6008,-0.601,-0.6029,-0.6034,-0.6038,0,0,0,0,0,0,-0.5967,-0.5964,-0.5957,-0.5975,-0.5977,-0.5975,-0.5985,-0.5978,-0.5983,-0.5981,-0.5972,-0.5972,-0.5988,-0.5988,-0.5977,-0.6006,-0.5991,-0.5994,-0.6005,-0.601,-0.6013,-0.6013,-0.5959,0,0,0,0,0,-0.5973,-0.5982,-0.5978,-0.5994,-0.5996,-0.599,-0.5995,-0.5989,-0.5991,-0.5992,-0.599,-0.5993,-0.6,-0.6005,-0.6011,-0.6031,-0.6031,-0.604,-0.6044,-0.6047,-0.6049,-0.606,-0.6064,-0.6017,-0.6017,-0.6017,0,0,-0.5987,-0.5986,-0.5992,-0.5999,-0.5999,-0.6008,-0.5991,-0.6001,-0.6008,-0.5993,-0.6007,-0.6006,-0.6008,-0.6025,-0.6033,-0.6025,-0.6062,-0.6049,-0.6052,-0.6052,-0.6062,-0.6067,-0.6071,-0.6018,-0.6018,-0.6018,0,0,-0.6017,-0.6017,-0.603,-0.6031,-0.6033,-0.6029,-0.6033,-0.6032,-0.6031,-0.6044,-0.6033,-0.6041,-0.6053,-0.6055,-0.6058,-0.6088,-0.6079,-0.609,-0.6108,-0.6119,-0.6123,-0.6126,-0.6137,-0.6141,-0.6092,-0.6092,-0.6092,0,-0.6033,-0.6046,-0.6038,-0.6049,-0.6052,-0.6039,-0.6053,-0.6054,-0.6058,-0.6061,-0.6052,-0.6068,-0.6068,-0.6085,-0.6093,-0.6095,-0.6099,-0.609,-0.6123,-0.6126,-0.6129,-0.6139,-0.6144,-0.6094,-0.6094,-0.6093,-0.6093,0,-0.6067,-0.6076,-0.6087,-0.6091,-0.6095,-0.6107,-0.6101,-0.6107,-0.6101,-0.6098,-0.6112,-0.6112,-0.6118,-0.6121,-0.6116,-0.6138,-0.6134,-0.6124,-0.611,-0.6135,-0.6145,-0.6149,-0.6096,-0.6095,-0.6095,-0.6094,0,0,-0.611,-0.6109,-0.6113,-0.6115,-0.6116,-0.6123,-0.6134,-0.614,-0.6145,-0.6148,-0.6158,-0.6168,-0.6159,-0.6162,-0.6156,-0.6166,-0.619,-0.6155,-0.6155,-0.6162,-0.6215,-0.6223,-0.6228,-0.6184,-0.6185,-0.6185,-0.6215,0,-0.614,-0.6159,-0.6152,-0.6173,-0.6181,-0.6169,-0.6179,-0.618,-0.6178,-0.6185,-0.6182,-0.619,-0.6177,-0.6179,-0.6188,-0.6185,-0.6201,-0.6183,-0.6193,-0.6194,-0.6194,-0.6233,-0.6241,-0.6269,-0.6219,-0.622,-0.622,0,-0.6177,-0.6181,-0.6202,-0.6201,-0.6205,-0.6214,-0.6219,-0.6225,-0.6227,-0.6224,-0.6228,-0.622,-0.6231,-0.6216,-0.6232,-0.622,-0.6224,-0.6223,-0.6224,-0.6225,-0.6209,-0.6235,-0.6278,-0.6282,-0.6226,-0.6225,-0.6225,0,-0.6206,-0.6217,-0.6232,-0.6233,-0.6233,-0.624,-0.624,-0.624,-0.6244,-0.6248,-0.6251,-0.6256,-0.626,-0.6264,-0.6258,-0.6248,-0.6275,-0.6259,-0.6273,-0.6274,-0.628,-0.628,-0.6324,-0.6282,-0.6282,-0.6282,-0.6282,0,-0.624,-0.6254,-0.6245,-0.6254,-0.6269,-0.626,-0.6275,-0.6274,-0.6275,-0.6283,-0.6272,-0.628,-0.6272,-0.6279,-0.6274,-0.6288,-0.629,-0.6288,-0.6287,-0.6289,-0.629,-0.6292,-0.629,-0.6283,-0.6283,-0.6282,-0.6282,0,-0.6276,-0.6271,-0.6286,-0.6284,-0.6284,-0.6295,-0.6293,-0.6301,-0.6298,-0.6309,-0.6311,-0.6306,-0.6314,-0.6308,-0.6316,-0.6313,-0.6331,-0.6327,-0.6331,-0.633,-0.6345,-0.6344,-0.6393,-0.6399,-0.6352,-0.6352,-0.6353,0,-0.6299,-0.6309,-0.6308,-0.6313,-0.6314,-0.6321,-0.6325,-0.6317,-0.6322,-0.6324,-0.6332,-0.6339,-0.6345,-0.6358,-0.6355,-0.6361,-0.6357,-0.6374,-0.6358,-0.6361,-0.6358,-0.6358,-0.6359,-0.6378,-0.6378,-0.6379,-0.6379,0,-0.6339,-0.6336,-0.6342,-0.6347,-0.6352,-0.6356,-0.6359,-0.6364,-0.6355,-0.6361,-0.6369,-0.6373,-0.6381,-0.6389,-0.6394,-0.6394,-0.6385,-0.6384,-0.6388,-0.6391,-0.6393,-0.6392,-0.634,-0.6383,-0.6382,-0.6382,-0.6382,-0.6382,-0.6369,-0.6378,-0.6378,-0.6386,-0.6387,-0.639,-0.6398,-0.6395,-0.6402,-0.6408,-0.6402,-0.6412,-0.6413,-0.6419,-0.642,-0.6428,-0.6421,-0.6426,-0.6428,-0.6429,-0.6431,-0.6391,-0.6428,-0.6428,-0.6428,-0.6428,-0.6428,0,-0.6409,-0.6409,-0.6416,-0.642,-0.6426,-0.6417,-0.642,-0.6425,-0.6434,-0.6436,-0.6441,-0.645,-0.6457,-0.6455,-0.6461,-0.6467,-0.6464,-0.6469,-0.6469,-0.6469,-0.6437,-0.6433,-0.6472,-0.6472,-0.6472,-0.6472,-0.6472,-0.6472,-0.6431,-0.6445,-0.6442,-0.6456,-0.6456,-0.6465,-0.6468,-0.6471,-0.6472,-0.6483,-0.6489,-0.6487,-0.6487,-0.6493,-0.6499,-0.6498,-0.6501,-0.6508,-0.6506,-0.6476,-0.6472,-0.6467,-0.6464,-0.6509,-0.6509,-0.6538,-0.6538,-0.6538]},{"header":{"parameterUnit":"m.s-1","parameterCategory":1,"la1":30.2991,"la2":30.254,"lo1":-89.0895,"lo2":-89.0444,"dy":0.0017,"dx":0.0017,"nx":28,"ny":28,"refTime":"2025-12-04T09:00:00:Z","depth":0,"parameterNumber":3,"parameterNumberName":"V-component_of_WINDS"},"data":[0,0,0,0,0,0,0,0,0,0,0,0,0,0,0,0,0,0,0,0,0,0,0,0,0,0,0,0,0,0,0,0,0,0,0,0,0,0,0,0,0,0,0,0,0,0,0,0,0,0,0,0,0,0,0,0,0,0,-2.332,-2.3321,0,-2.3373,-2.3373,-2.3374,-2.3367,-2.3366,-2.3365,-2.3364,-2.3415,-2.3418,-2.342,0,0,0,0,0,0,0,0,0,0,0,0,0,-2.321,-2.3212,-2.332,-2.3321,-2.3321,-2.3373,-2.3373,-2.3374,-2.3367,-2.3366,-2.3365,-2.3364,-2.3415,-2.3417,-2.342,0,0,0,0,0,0,0,0,0,0,0,0,0,-2.326,-2.3213,-2.332,-2.3324,-2.3325,-2.3373,-2.3373,-2.3374,-2.3367,-2.3366,-2.3365,-2.3363,-2.3414,-2.3417,-2.342,-2.3466,0,0,-2.343,-2.3432,0,0,0,0,0,0,0,0,-2.3257,-2.3264,-2.3323,-2.3324,-2.3325,-2.3362,-2.3354,-2.3405,-2.3367,-2.3351,-2.3364,-2.3363,-2.3399,-2.3403,-2.3416,-2.3469,-2.3471,-2.3431,-2.3433,-2.3434,-2.3435,0,0,0,0,0,0,0,-2.3254,-2.3262,-2.3341,-2.3323,-2.3325,-2.3322,-2.3328,-2.3363,-2.3381,-2.3352,-2.3352,-2.3358,-2.3399,-2.3413,-2.3417,-2.3472,-2.343,-2.3433,-2.3435,-2.3437,-2.3566,-2.3568,0,0,0,0,0,0,-2.325,-2.3259,-2.3339,-2.3342,-2.3287,-2.3325,-2.3332,-2.3351,-2.3381,-2.3384,-2.336,-2.3358,-2.3408,-2.3413,-2.3419,-2.3475,-2.3434,-2.3437,-2.3439,-2.3565,-2.3567,-2.3568,0,0,0,0,0,0,-2.3247,-2.3257,-2.3337,-2.3301,-2.3311,-2.3329,-2.3351,-2.3353,-2.3367,-2.3386,-2.3389,-2.337,-2.3407,-2.3414,-2.3455,-2.3477,-2.3438,-2.3441,-2.3563,-2.3565,-2.3567,-2.3588,0,0,0,0,0,0,-2.3244,-2.3256,-2.3274,-2.3301,-2.3313,-2.3373,-2.3352,-2.3355,-2.3373,-2.3371,-2.3397,-2.34,-2.3406,-2.345,-2.3458,-2.3481,-2.3444,-2.3561,-2.3564,-2.3567,-2.3586,-2.3591,-2.3595,0,0,0,0,0,-2.324,-2.3277,-2.3275,-2.3285,-2.3336,-2.3374,-2.3381,-2.3388,-2.3375,-2.3393,-2.3405,-2.34,-2.3473,-2.3454,-2.3463,-2.3487,-2.356,-2.3563,-2.3566,-2.3584,-2.359,-2.3595,0,0,0,0,0,0,-2.3251,-2.3281,-2.3279,-2.3326,-2.3348,-2.3373,-2.3396,-2.3394,-2.342,-2.3417,-2.3424,-2.343,-2.3471,-2.3483,-2.3462,-2.3534,-2.3514,-2.352,-2.3524,-2.3531,-2.3535,-2.3532,-2.3447,0,0,0,0,0,-2.3259,-2.3289,-2.3313,-2.3352,-2.3363,-2.3378,-2.3395,-2.3399,-2.3421,-2.343,-2.3446,-2.3467,-2.3495,-2.3514,-2.354,-2.3587,-2.3593,-2.3608,-2.3613,-2.3617,-2.3621,-2.3648,-2.3655,-2.3579,-2.3579,-2.3579,0,0,-2.3276,-2.3296,-2.3314,-2.3355,-2.3372,-2.3402,-2.3386,-2.3418,-2.344,-2.3435,-2.3475,-2.3487,-2.3512,-2.3556,-2.3576,-2.3567,-2.3644,-2.3621,-2.3624,-2.3627,-2.3652,-2.3659,-2.3665,-2.3581,-2.3581,-2.3581,0,0,-2.3321,-2.3339,-2.3374,-2.3393,-2.342,-2.343,-2.3438,-2.3464,-2.3473,-2.3513,-2.351,-2.3536,-2.3584,-2.3602,-2.3617,-2.3671,-2.3666,-2.3679,-2.3704,-2.373,-2.3736,-2.3741,-2.3761,-2.3767,-2.3683,-2.3684,-2.3684,0,-2.3338,-2.3384,-2.3392,-2.3426,-2.3444,-2.3441,-2.3477,-2.3493,-2.3528,-2.354,-2.3529,-2.359,-2.3606,-2.3655,-2.3669,-2.3681,-2.3691,-2.3676,-2.3735,-2.374,-2.3745,-2.3764,-2.3771,-2.3685,-2.3685,-2.3685,-2.3684,0,-2.3404,-2.3436,-2.3461,-2.3495,-2.3516,-2.355,-2.3563,-2.3583,-2.3585,-2.3595,-2.3637,-2.3656,-2.3687,-2.3699,-2.3701,-2.3749,-2.3742,-2.3733,-2.3714,-2.3754,-2.3771,-2.3778,-2.3687,-2.3686,-2.3686,-2.3686,0,0,-2.3457,-2.3497,-2.3506,-2.3522,-2.3552,-2.3577,-2.361,-2.3642,-2.3659,-2.3683,-2.3711,-2.3753,-2.3745,-2.3762,-2.3766,-2.3788,-2.383,-2.3777,-2.3777,-2.3786,-2.3884,-2.3891,-2.3899,-2.3827,-2.3829,-2.383,-2.3882,0,-2.3506,-2.3567,-2.3576,-2.3629,-2.3659,-2.3658,-2.3687,-2.3709,-2.372,-2.3746,-2.3758,-2.3787,-2.3775,-2.3785,-2.3807,-2.382,-2.385,-2.3817,-2.3854,-2.3855,-2.3848,-2.3908,-2.3916,-2.3964,-2.3889,-2.389,-2.3891,0,-2.3571,-2.3598,-2.3655,-2.3683,-2.3695,-2.3722,-2.3752,-2.3777,-2.3802,-2.3808,-2.3828,-2.3829,-2.3864,-2.3844,-2.3891,-2.3868,-2.3884,-2.3893,-2.3895,-2.3899,-2.3876,-2.3914,-2.398,-2.3987,-2.3902,-2.3901,-2.3901,0,-2.3605,-2.3656,-2.3697,-2.371,-2.3743,-2.3762,-2.3776,-2.3799,-2.3818,-2.3844,-2.3856,-2.3885,-2.3901,-2.3923,-2.3932,-2.3916,-2.398,-2.396,-2.3986,-2.3986,-2.3999,-2.3998,-2.4068,-2.4009,-2.4009,-2.4008,-2.4008,0,-2.3659,-2.3694,-2.3712,-2.3738,-2.3777,-2.3786,-2.3824,-2.3838,-2.3859,-2.3886,-2.3886,-2.3911,-2.3922,-2.3949,-2.3956,-2.3994,-2.4001,-2.4007,-2.4009,-2.4007,-2.4007,-2.4018,-2.4015,-2.401,-2.401,-2.401,-2.4009,0,-2.3703,-2.3717,-2.3762,-2.3789,-2.3797,-2.3825,-2.3848,-2.3872,-2.3883,-2.3918,-2.3927,-2.3944,-2.3976,-2.3987,-2.4025,-2.403,-2.4075,-2.4073,-2.4067,-2.4068,-2.4093,-2.4091,-2.4173,-2.4185,-2.4117,-2.4118,-2.4118,0,-2.3736,-2.3764,-2.3795,-2.3814,-2.3829,-2.3859,-2.3879,-2.3889,-2.3909,-2.394,-2.396,-2.3992,-2.4019,-2.4069,-2.4085,-2.4114,-2.4114,-2.4141,-2.4118,-2.4116,-2.4114,-2.4113,-2.4116,-2.4145,-2.4145,-2.4146,-2.4146,0,-2.3795,-2.3801,-2.3829,-2.3861,-2.3885,-2.391,-2.3934,-2.3949,-2.3963,-2.3985,-2.4019,-2.4039,-2.4079,-2.4111,-2.4141,-2.4155,-2.4153,-2.4154,-2.4161,-2.416,-2.4156,-2.4159,-2.4079,-2.4151,-2.4151,-2.4151,-2.415,-2.415,-2.3835,-2.3859,-2.3885,-2.3918,-2.3937,-2.396,-2.3985,-2.3999,-2.4028,-2.4062,-2.4066,-2.4102,-2.4126,-2.4167,-2.4182,-2.421,-2.4202,-2.4213,-2.4216,-2.4219,-2.4221,-2.4151,-2.4215,-2.4215,-2.4215,-2.4215,-2.4215,0,-2.3893,-2.391,-2.394,-2.3975,-2.4,-2.3997,-2.4024,-2.4045,-2.4077,-2.41,-2.4127,-2.4165,-2.4196,-2.4215,-2.4246,-2.4265,-2.4264,-2.4272,-2.4271,-2.4274,-2.4226,-2.4216,-2.4272,-2.4272,-2.4272,-2.4272,-2.4272,-2.4272,-2.3927,-2.3968,-2.3977,-2.4029,-2.4045,-2.4081,-2.4097,-2.4118,-2.4137,-2.418,-2.4207,-2.4219,-2.424,-2.4273,-2.4301,-2.4306,-2.4317,-2.4326,-2.433,-2.4284,-2.4278,-2.4272,-2.4263,-2.4328,-2.4328,-2.4376,-2.4377,-2.4377]}]]